Date String (YYYY-MM-DD hh:mm:ss) UTC,Instrument flags,Ambient pressure (hPa),Sample flow (lpm),Bypass flow (lpm),Sample temperature (°C),Ambient temperature (°C),ASC tube jacket temperature (°C),LED temperature (°C),Box temperature (°C),Sample RH (%),Span deviation,Mass concentration (μg/m³),Mass concentration (μg/m³),Mass concentration (μg/m³)
DateTimeUTC,F1_M11,P_M11,Q1_M11,Q2_M11,T1_M11,T2_M11,T3_M11,T4_M11,T5_M11,U1_M11,ZSPAN_M11,X0_M11,X2_M11,X1_M11
2023-03-02 14:00:00,,0815.8,5.00,0.00,22.0,21.7,00.0,30.6,23.6,13.1,0000.0,0010.37,0006.60,0006.23
2023-03-02 14:01:00,,0815.8,5.01,0.00,21.9,21.2,00.0,30.6,23.5,13.2,0000.0,0010.34,0006.55,0006.19
2023-03-02 14:02:00,,0815.8,5.00,0.00,21.9,20.9,00.0,30.6,23.5,13.3,0000.0,0010.31,0006.51,0006.15
2023-03-02 14:03:00,,0815.8,5.01,0.00,21.9,20.6,00.0,30.6,23.4,13.3,0000.0,0010.30,0006.49,0006.11
2023-03-02 14:04:00,,0815.9,5.01,0.00,21.9,20.4,00.0,30.6,23.4,13.4,0000.0,0010.34,0006.50,0006.10
2023-03-02 14:05:00,,0816.0,4.99,0.00,21.8,20.3,00.0,30.6,23.3,13.4,0000.0,0010.21,0006.42,0006.05
2023-03-02 14:06:00,,0815.9,5.02,0.00,21.8,20.1,00.0,30.6,23.3,13.4,0000.0,0009.96,0006.34,0005.98
2023-03-02 14:07:00,,0816.0,4.99,0.00,21.8,20.0,00.0,30.6,23.3,13.4,0000.0,0009.37,0006.24,0005.88
2023-03-02 14:08:00,,0816.0,4.97,0.00,21.8,20.0,00.0,30.6,23.3,13.3,0000.0,0009.20,0006.14,0005.80
2023-03-02 14:09:00,,0816.1,5.03,0.00,21.8,21.0,00.0,30.6,23.5,13.3,0000.0,0009.11,0006.09,0005.75
2023-03-02 14:10:00,,0816.1,5.01,0.00,21.9,22.4,00.0,30.6,23.8,13.2,0000.0,0008.87,0006.06,0005.70
2023-03-02 14:11:00,,0816.0,5.01,0.00,22.1,23.3,00.0,30.6,24.0,13.1,0000.0,0009.35,0005.99,0005.63
2023-03-02 14:12:00,,0816.0,5.01,0.00,22.1,22.7,00.0,30.7,24.0,13.1,0000.0,0009.52,0005.94,0005.57
2023-03-02 14:13:00,,0816.0,5.01,0.00,22.1,22.2,00.0,30.7,23.9,13.2,0000.0,0009.45,0005.91,0005.53
2023-03-02 14:14:00,,0816.0,4.99,0.00,22.1,21.6,00.0,30.7,23.8,13.2,0000.0,0009.39,0005.84,0005.48
2023-03-02 14:15:00,,0816.0,5.00,0.00,22.1,21.2,00.0,30.8,23.7,13.2,0000.0,0009.25,0005.75,0005.41
2023-03-02 14:16:00,,0816.0,5.00,0.00,22.1,20.9,00.0,30.8,23.7,13.2,0000.0,0009.16,0005.71,0005.38
2023-03-02 14:17:00,,0816.0,5.01,0.00,22.0,20.7,00.0,30.8,23.6,13.2,0000.0,0009.08,0005.71,0005.38
2023-03-02 14:18:00,,0816.0,5.01,0.00,22.0,20.5,00.0,30.8,23.6,13.3,0000.0,0009.08,0005.74,0005.42
2023-03-02 14:19:00,,0816.1,5.00,0.00,22.0,20.4,00.0,30.7,23.6,13.3,0000.0,0009.11,0005.76,0005.43
2023-03-02 14:20:00,,0816.0,4.99,0.00,22.0,20.2,00.0,30.7,23.5,13.2,0000.0,0008.98,0005.69,0005.39
2023-03-02 14:21:00,,0816.1,4.99,0.00,21.9,20.1,00.0,30.7,23.5,13.2,0000.0,0009.23,0005.64,0005.37
2023-03-02 14:22:00,,0816.0,5.00,0.00,21.9,20.2,00.0,30.7,23.5,13.2,0000.0,0008.69,0005.60,0005.35
2023-03-02 14:23:00,,0816.1,5.02,0.00,22.0,21.4,00.0,30.7,23.7,13.2,0000.0,0008.35,0005.56,0005.33
2023-03-02 14:24:00,,0816.1,4.99,0.00,22.1,22.9,00.0,30.7,24.0,13.2,0000.0,0008.30,0005.54,0005.30
2023-03-02 14:25:00,,0816.1,4.98,0.00,22.2,23.5,00.0,30.8,24.2,13.2,0000.0,0008.39,0005.54,0005.30
2023-03-02 14:26:00,,0816.2,5.01,0.00,22.3,22.9,00.0,30.8,24.1,13.2,0000.0,0008.47,0005.56,0005.33
2023-03-02 14:27:00,,0816.2,5.00,0.00,22.3,22.3,00.0,30.9,24.0,13.2,0000.0,0008.46,0005.53,0005.31
2023-03-02 14:28:00,,0816.2,4.99,0.00,22.3,21.8,00.0,30.9,23.9,13.1,0000.0,0008.48,0005.49,0005.27
2023-03-02 14:29:00,,0816.3,5.00,0.00,22.2,21.4,00.0,30.9,23.8,13.1,0000.0,0008.42,0005.45,0005.23
2023-03-02 14:30:00,,0816.2,5.00,0.00,22.2,21.1,00.0,30.9,23.8,13.1,0000.0,0008.47,0005.47,0005.24
2023-03-02 14:31:00,,0816.3,5.01,0.00,22.2,20.9,00.0,30.9,23.8,13.1,0000.0,0008.58,0005.51,0005.26
2023-03-02 14:32:00,,0816.3,5.01,0.00,22.2,20.8,00.0,30.9,23.8,13.1,0000.0,0008.50,0005.53,0005.27
2023-03-02 14:33:00,,0816.4,5.00,0.00,22.2,20.7,00.0,30.9,23.8,13.1,0000.0,0008.46,0005.56,0005.27
2023-03-02 14:34:00,,0816.4,5.01,0.00,22.1,20.6,00.0,30.9,23.8,13.1,0000.0,0008.54,0005.60,0005.30
2023-03-02 14:35:00,,0816.4,4.98,0.00,22.1,20.6,00.0,30.9,23.8,13.2,0000.0,0008.52,0005.61,0005.33
2023-03-02 14:36:00,,0816.5,5.00,0.00,22.1,20.5,00.0,30.9,23.8,13.3,0000.0,0008.44,0005.63,0005.36
2023-03-02 14:37:00,,0816.5,4.99,0.00,22.1,20.5,00.0,30.9,23.7,13.3,0000.0,0008.39,0005.64,0005.37
2023-03-02 14:38:00,,0816.4,4.99,0.00,22.1,20.5,00.0,30.9,23.8,13.3,0000.0,0008.40,0005.68,0005.40
2023-03-02 14:39:00,,0816.4,5.00,0.00,22.1,20.5,00.0,30.8,23.7,13.3,0000.0,0008.61,0005.74,0005.46
2023-03-02 14:40:00,,0816.4,5.02,0.00,22.1,21.7,00.0,30.9,23.9,13.2,0000.0,0008.89,0005.80,0005.50
2023-03-02 14:41:00,,0816.4,5.00,0.00,22.2,23.0,00.0,30.9,24.2,13.0,0000.0,0008.96,0005.79,0005.50
2023-03-02 14:42:00,,0816.5,5.01,0.00,22.4,23.1,00.0,30.9,24.3,12.8,0000.0,0009.02,0005.80,0005.50
2023-03-02 14:43:00,,0816.5,5.00,0.00,22.4,22.6,00.0,31.0,24.2,12.7,0000.0,0008.95,0005.83,0005.53
2023-03-02 14:44:00,,0816.5,4.99,0.00,22.4,22.1,00.0,31.0,24.2,12.6,0000.0,0008.94,0005.85,0005.55
2023-03-02 14:45:00,,0816.5,5.00,0.00,22.4,21.8,00.0,31.0,24.1,12.5,0000.0,0008.91,0005.84,0005.56
2023-03-02 14:46:00,,0816.7,5.00,0.00,22.4,21.5,00.0,31.0,24.1,12.4,0000.0,0009.09,0005.84,0005.54
2023-03-02 14:47:00,,0816.9,5.00,0.00,22.4,21.3,00.0,31.0,24.1,12.4,0000.0,0009.12,0005.82,0005.49
2023-03-02 14:48:00,,0816.6,5.00,0.00,22.4,21.2,00.0,31.0,24.0,12.4,0000.0,0009.09,0005.77,0005.44
2023-03-02 14:49:00,,0816.6,5.01,0.00,22.3,21.1,00.0,31.0,24.0,12.4,0000.0,0009.10,0005.73,0005.39
2023-03-02 14:50:00,,0816.7,4.99,0.00,22.3,21.0,00.0,31.0,24.0,12.4,0000.0,0008.98,0005.72,0005.36
2023-03-02 14:51:00,,0816.6,5.00,0.00,22.3,20.9,00.0,31.0,24.0,12.5,0000.0,0008.65,0005.65,0005.30
2023-03-02 14:52:00,,0816.6,5.00,0.00,22.3,20.9,00.0,31.0,24.0,12.7,0000.0,0008.58,0005.64,0005.27
2023-03-02 14:53:00,,0816.6,4.99,0.00,22.3,20.8,00.0,31.0,23.9,12.5,0000.0,0008.45,0005.61,0005.25
2023-03-02 14:54:00,,0816.7,4.99,0.00,22.3,20.8,00.0,31.0,23.9,12.5,0000.0,0008.34,0005.57,0005.22
2023-03-02 14:55:00,,0816.7,4.99,0.00,22.3,20.8,00.0,31.0,23.9,12.6,0000.0,0008.29,0005.54,0005.20
2023-03-02 14:56:00,,0816.6,5.00,0.00,22.3,20.7,00.0,31.0,23.8,12.6,0000.0,0008.27,0005.53,0005.17
2023-03-02 14:57:00,,0816.6,4.99,0.00,22.2,20.6,00.0,31.0,23.8,12.5,0000.0,0008.16,0005.51,0005.15
2023-03-02 14:58:00,,0816.8,5.01,0.00,22.2,20.5,00.0,31.0,23.8,12.5,0000.0,0008.13,0005.51,0005.16
2023-03-02 14:59:00,,0817.1,5.01,0.00,22.2,20.5,00.0,31.0,23.8,12.5,0000.0,0008.21,0005.51,0005.15
